SCP
0 0 0 0 0 0 0 0 0 1 2 3 3 2 3 3 2 2 1 1 1 0 0 0 0 0 1 1 0 0 0 0
0 0 0 0 0 0 0 0 0 0 1 1 2 3 4 3 2 2 1 0 0 0 0 0 0 0 0 0 0 0 0 0
0 0 0 0 0 0 0 0 0 0 0 0 1 1 1 3 3 2 1 0 0 0 0 0 0 0 0 0 0 0 0 0
0 0 0 0 0 0 0 0 0 0 0 0 0 0 1 1 1 1 1 1 0 0 0 0 0 0 0 0 0 0 0 0
0 0 0 0 0 0 0 0 0 0 0 0 0 0 0 1 0 0 1 1 1 1 0 0 0 0 0 0 0 0 0 0
0 0 0 0 0 0 0 0 0 0 0 0 0 0 0 0 0 1 1 1 2 1 1 1 1 0 0 0 0 0 0 0
0 0 0 0 0 0 0 0 0 0 0 0 0 0 0 0 0 1 1 2 2 2 1 1 1 0 0 0 0 0 0 0
0 -0 0 -0 0 0 0 0 0 0 0 0 0 0 0 0 0 0 1 1 2 2 1 1 0 0 0 0 0 0 0 0
0 0 0 0 -0 0 0 0 0 0 0 0 0 0 0 0 0 0 1 1 1 3 1 1 1 0 0 0 0 0 0 0
0 0 0 0 0 0 0 0 0 0 0 0 0 0 0 0 0 0 0 1 1 2 1 1 0 0 0 0 0 0 0 0
0 0 0 0 0 0 0 0 0 0 0 0 0 0 0 0 0 0 0 0 0 0 0 0 0 0 0 0 0 0 0 0
0 0 0 0 0 0 0 0 0 0 0 0 0 0 0 0 0 0 0 0 0 0 0 0 0 0 0 0 0 0 0 0
0 0 0 0 0 0 0 0 0 0 0 0 0 0 0 0 0 0 0 0 0 0 0 0 0 0 0 0 0 0 0 0
0 0 0 0 0 0 0 -0 -0 0 0 0 0 0 0 0 0 0 0 0 0 0 0 0 0 0 0 0 0 0 0 0
0 0 0 0 0 0 0 0 -0 -0 0 0 0 0 0 0 0 0 0 0 0 0 0 0 0 0 0 0 0 0 0 0
0 0 0 0 0 0 0 0 0 0 -0 0 0 0 0 0 0 0 0 0 0 0 0 0 0 0 0 0 0 0 0 0
0 0 0 0 0 0 0 0 0 0 -0 0 0 0 0 0 0 0 0 0 0 0 0 0 0 0 0 0 0 0 0 0
0 0 0 0 0 0 0 0 0 0 0 -0 -0 -0 0 0 0 -0 0 0 0 0 0 0 0 0 0 0 0 0 0 0
0 0 0 0 0 -0 0 0 0 0 0 -0 0 0 -0 -0 -0 -0 0 0 0 0 0 0 0 0 0 0 0 0 0 0
0 0 0 0 0 0 0 0 0 0 0 0 0 -0 -0 0 0 0 0 0 0 0 0 0 0 0 0 0 0 0 0 0
Wind_Speed_500mb
43 40 47 45 44 42 36 28 29 18 21 34 44 49 51 57 55 55 51 48 46 39 37 35 34 32 31 31 30 30 29 26
45 48 48 46 43 40 34 29 23 14 15 27 32 33 39 43 46 49 48 46 44 43 40 39 38 36 34 32 32 30 27 24
56 56 55 50 46 43 37 32 26 24 11 10 23 28 35 37 44 47 47 47 46 45 44 41 40 38 37 35 33 30 26 23
78 75 68 59 53 48 43 39 33 29 34 17 7 11 31 39 41 48 48 48 48 46 47 47 45 41 41 42 34 30 25 20
73 71 67 62 56 51 48 44 40 38 34 62 34 33 15 38 50 51 51 50 50 50 48 49 48 43 49 45 40 30 25 20
79 81 79 82 73 72 62 57 55 53 46 42 82 52 34 24 42 52 59 59 56 56 56 53 50 49 56 52 45 37 28 27
101 89 99 85 79 80 73 73 72 67 60 52 48 67 78 46 42 42 49 55 56 57 57 59 58 52 58 56 48 33 25 25
93 98 84 95 86 81 75 80 81 81 75 70 62 61 70 77 63 49 42 47 54 59 58 57 61 55 62 57 51 34 29 28
89 85 86 90 85 81 87 85 91 89 84 80 75 73 75 70 62 65 71 60 48 58 58 54 52 57 53 62 55 45 35 35
83 80 81 81 77 74 87 92 90 83 78 77 75 80 78 73 66 60 58 59 64 59 54 54 50 47 54 59 59 55 48 47
81 73 76 73 66 60 70 80 72 74 79 79 77 74 79 79 74 68 65 65 67 68 63 62 59 51 46 58 64 60 59 60
82 73 71 72 68 65 60 55 56 62 73 82 78 72 79 74 79 72 73 74 74 73 73 70 64 59 53 44 51 61 63 60
78 70 72 69 63 63 56 60 58 62 62 64 71 77 76 77 71 78 78 76 76 74 77 70 68 66 61 57 50 40 38 40
75 71 62 58 63 49 50 40 47 59 63 55 65 65 65 78 80 75 72 71 76 76 71 72 68 63 60 61 64 63 56 57
70 61 52 55 48 46 45 33 16 45 51 48 59 63 66 56 71 74 66 70 65 63 83 73 67 53 70 66 64 58 56 57
66 48 51 41 44 38 35 22 18 25 32 42 45 51 58 49 59 62 65 55 61 59 58 72 77 76 56 53 53 56 58 61
63 52 57 44 36 37 35 19 18 25 30 40 34 42 39 51 49 54 56 57 54 55 51 61 75 73 66 64 61 54 51 52
75 71 63 51 31 25 27 20 24 24 26 32 31 33 39 47 41 58 54 44 47 44 48 51 48 68 72 66 63 67 57 49
74 71 66 52 29 22 24 21 22 22 21 26 27 28 34 40 40 34 40 45 43 43 42 40 46 48 54 53 52 57 58 55
89 84 75 54 29 20 16 8 18 14 15 17 18 22 23 25 28 30 31 31 30 32 33 35 45 41 43 45 48 50 51 55
Wind_Direction_500mb
302 304 306 310 313 319 327 325 336 306 247 214 206 199 187 189 192 193 193 193 196 189 191 193 194 194 191 186 185 185 186 187
296 296 302 302 303 308 315 325 326 329 265 225 210 198 188 184 183 181 184 181 181 183 185 190 193 193 191 188 185 184 186 190
298 297 298 293 294 295 297 297 307 291 289 265 234 238 213 194 188 184 182 181 183 188 183 184 188 192 194 191 191 193 195 198
301 297 293 290 288 284 283 279 282 285 261 277 274 242 223 220 205 196 188 188 191 192 190 189 191 195 200 198 189 191 193 200
295 296 293 291 289 283 278 276 271 267 272 248 271 276 253 220 217 210 200 198 199 195 194 193 194 192 205 198 195 189 195 211
299 294 292 285 281 280 274 269 266 260 255 256 240 253 263 248 224 214 209 208 204 200 196 193 194 193 205 205 208 210 224 240
290 289 289 278 279 273 264 265 261 254 250 243 241 232 241 244 233 211 211 207 204 202 202 196 196 196 207 210 218 224 233 246
288 290 281 286 281 262 261 263 259 252 248 244 234 226 233 235 227 222 209 207 208 207 203 202 203 198 211 216 224 224 236 248
294 289 283 282 282 267 265 263 257 253 250 244 235 227 223 221 221 223 224 224 206 205 204 202 204 208 217 222 231 237 240 252
302 296 292 289 281 272 265 261 255 246 244 241 234 228 223 220 215 210 202 199 200 203 205 207 212 213 221 231 236 247 252 260
308 303 300 300 297 283 268 265 258 242 239 236 233 225 222 217 214 210 206 205 207 208 214 216 218 221 225 236 243 250 259 265
315 312 304 303 309 304 296 284 265 246 235 232 228 225 225 219 215 212 211 211 211 212 215 219 221 222 223 229 243 250 255 261
322 319 318 317 320 313 296 282 269 254 239 228 225 222 221 222 215 212 214 215 214 215 217 216 219 223 223 224 225 233 244 254
333 332 327 332 332 324 324 304 254 234 232 220 217 212 212 213 214 214 215 215 219 215 215 216 221 225 225 229 230 230 247 248
340 336 341 338 350 344 353 8 161 200 207 204 206 208 210 206 200 204 209 218 216 217 217 211 209 219 222 225 228 242 246 243
350 352 344 356 10 360 14 42 109 151 175 187 198 203 199 197 197 200 204 209 209 215 214 214 220 214 214 221 228 232 234 231
10 7 3 13 15 23 15 49 105 140 158 175 174 173 174 188 194 195 200 205 202 209 213 214 209 212 223 226 231 227 227 231
18 12 14 19 26 38 45 72 98 126 130 147 159 170 187 198 202 201 204 198 191 195 200 210 213 213 214 222 223 221 218 220
24 25 25 29 42 65 46 69 63 117 145 153 158 166 172 180 192 199 199 207 207 203 205 204 204 208 211 213 219 220 218 221
30 40 42 44 54 71 86 54 68 115 142 145 148 145 155 171 182 187 184 186 183 189 192 198 207 200 202 209 214 217 222 220
Wind_Speed_850mb
43 40 47 45 44 42 36 28 29 18 21 34 44 49 51 57 55 55 51 48 46 39 37 35 34 32 31 31 30 30 29 26
45 48 48 46 43 40 34 29 23 14 15 27 32 33 39 43 46 49 48 46 44 43 40 39 38 36 34 32 32 30 27 24
56 56 55 50 46 43 37 32 26 24 11 10 23 28 35 37 44 47 47 47 46 45 44 41 40 38 37 35 33 30 26 23
78 75 68 59 53 48 43 39 33 29 34 17 7 11 31 39 41 48 48 48 48 46 47 47 45 41 41 42 34 30 25 20
73 71 67 62 56 51 48 44 40 38 34 62 34 33 15 38 50 51 51 50 50 50 48 49 48 43 49 45 40 30 25 20
79 81 79 82 73 72 62 57 55 53 46 42 82 52 34 24 42 52 59 59 56 56 56 53 50 49 56 52 45 37 28 27
101 89 99 85 79 80 73 73 72 67 60 52 48 67 78 46 42 42 49 55 56 57 57 59 58 52 58 56 48 33 25 25
93 98 84 95 86 81 75 80 81 81 75 70 62 61 70 77 63 49 42 47 54 59 58 57 61 55 62 57 51 34 29 28
89 85 86 90 85 81 87 85 91 89 84 80 75 73 75 70 62 65 71 60 48 58 58 54 52 57 53 62 55 45 35 35
83 80 81 81 77 74 87 92 90 83 78 77 75 80 78 73 66 60 58 59 64 59 54 54 50 47 54 59 59 55 48 47
81 73 76 73 66 60 70 80 72 74 79 79 77 74 79 79 74 68 65 65 67 68 63 62 59 51 46 58 64 60 59 60
82 73 71 72 68 65 60 55 56 62 73 82 78 72 79 74 79 72 73 74 74 73 73 70 64 59 53 44 51 61 63 60
78 70 72 69 63 63 56 60 58 62 62 64 71 77 76 77 71 78 78 76 76 74 77 70 68 66 61 57 50 40 38 40
75 71 62 58 63 49 50 40 47 59 63 55 65 65 65 78 80 75 72 71 76 76 71 72 68 63 60 61 64 63 56 57
70 61 52 55 48 46 45 33 16 45 51 48 59 63 66 56 71 74 66 70 65 63 83 73 67 53 70 66 64 58 56 57
66 48 51 41 44 38 35 22 18 25 32 42 45 51 58 49 59 62 65 55 61 59 58 72 77 76 56 53 53 56 58 61
63 52 57 44 36 37 35 19 18 25 30 40 34 42 39 51 49 54 56 57 54 55 51 61 75 73 66 64 61 54 51 52
75 71 63 51 31 25 27 20 24 24 26 32 31 33 39 47 41 58 54 44 47 44 48 51 48 68 72 66 63 67 57 49
74 71 66 52 29 22 24 21 22 22 21 26 27 28 34 40 40 34 40 45 43 43 42 40 46 48 54 53 52 57 58 55
89 84 75 54 29 20 16 8 18 14 15 17 18 22 23 25 28 30 31 31 30 32 33 35 45 41 43 45 48 50 51 55
Wind_Direction_850mb
302 304 306 310 313 319 327 325 336 306 247 214 206 199 187 189 192 193 193 193 196 189 191 193 194 194 191 186 185 185 186 187
296 296 302 302 303 308 315 325 326 329 265 225 210 198 188 184 183 181 184 181 181 183 185 190 193 193 191 188 185 184 186 190
298 297 298 293 294 295 297 297 307 291 289 265 234 238 213 194 188 184 182 181 183 188 183 184 188 192 194 191 191 193 195 198
301 297 293 290 288 284 283 279 282 285 261 277 274 242 223 220 205 196 188 188 191 192 190 189 191 195 200 198 189 191 193 200
295 296 293 291 289 283 278 276 271 267 272 248 271 276 253 220 217 210 200 198 199 195 194 193 194 192 205 198 195 189 195 211
299 294 292 285 281 280 274 269 266 260 255 256 240 253 263 248 224 214 209 208 204 200 196 193 194 193 205 205 208 210 224 240
290 289 289 278 279 273 264 265 261 254 250 243 241 232 241 244 233 211 211 207 204 202 202 196 196 196 207 210 218 224 233 246
288 290 281 286 281 262 261 263 259 252 248 244 234 226 233 235 227 222 209 207 208 207 203 202 203 198 211 216 224 224 236 248
294 289 283 282 282 267 265 263 257 253 250 244 235 227 223 221 221 223 224 224 206 205 204 202 204 208 217 222 231 237 240 252
302 296 292 289 281 272 265 261 255 246 244 241 234 228 223 220 215 210 202 199 200 203 205 207 212 213 221 231 236 247 252 260
308 303 300 300 297 283 268 265 258 242 239 236 233 225 222 217 214 210 206 205 207 208 214 216 218 221 225 236 243 250 259 265
315 312 304 303 309 304 296 284 265 246 235 232 228 225 225 219 215 212 211 211 211 212 215 219 221 222 223 229 243 250 255 261
322 319 318 317 320 313 296 282 269 254 239 228 225 222 221 222 215 212 214 215 214 215 217 216 219 223 223 224 225 233 244 254
333 332 327 332 332 324 324 304 254 234 232 220 217 212 212 213 214 214 215 215 219 215 215 216 221 225 225 229 230 230 247 248
340 336 341 338 350 344 353 8 161 200 207 204 206 208 210 206 200 204 209 218 216 217 217 211 209 219 222 225 228 242 246 243
350 352 344 356 10 360 14 42 109 151 175 187 198 203 199 197 197 200 204 209 209 215 214 214 220 214 214 221 228 232 234 231
10 7 3 13 15 23 15 49 105 140 158 175 174 173 174 188 194 195 200 205 202 209 213 214 209 212 223 226 231 227 227 231
18 12 14 19 26 38 45 72 98 126 130 147 159 170 187 198 202 201 204 198 191 195 200 210 213 213 214 222 223 221 218 220
24 25 25 29 42 65 46 69 63 117 145 153 158 166 172 180 192 199 199 207 207 203 205 204 204 208 211 213 219 220 218 221
30 40 42 44 54 71 86 54 68 115 142 145 148 145 155 171 182 187 184 186 183 189 192 198 207 200 202 209 214 217 222 220